Regional Weather Roundup
Issued by NWS

Home | Current Version | Previous Version | Graphics & Text | Print | Product List | Glossary Off
Versions: 1 2 3 4 5 6 7 8 9 10 11 12 13 14 15 16 17 18 19 20 21 22 23 24 25 26 27 28 29 30 31 32 33 34 35 36 37 38 39 40 41 42 43 44 45 46 47 48 49 50

000
ASUS43 KLSX 280359
RWRMO

WEATHER SUMMARY FOR MISSOURI
NATIONAL WEATHER SERVICE SPRINGFIELD MO
1100 PM CDT WED MAY 27 2015

NOTE: "FAIR" INDICATES FEW OR NO CLOUDS BELOW 12,000 FEET WITH NO
       SIGNIFICANT WEATHER AND/OR OBSTRUCTIONS TO VISIBILITY.
       CURRENT SKY AND/OR WEATHER CONDITIONS ARE NOT AVAILABLE FOR
       CHILLICOTHE AND FARMINGTON.

MOZ001>031-035>038-043-044-053-054-280500-
...NORTHERN AND WESTERN MISSOURI...

CITY           SKY/WX    TMP DP  RH WIND       PRES   REMARKS
KANSAS CTY INT CLOUDY    66  56  70 S6        30.10R
KANSAS C DTWN  CLOUDY    72  54  53 S6        30.09R
LEE`S SUMMIT   CLOUDY    71  55  56 SE3       30.11R
ST JOSEPH      MOCLDY    65  59  81 CALM      30.09R
KIRKSVILLE     PTCLDY    61  60  97 CALM      30.13R

$$
MOZ066>068-077>081-088>096-101>105-280500-
...SOUTHWEST MISSOURI...

CITY           SKY/WX    TMP DP  RH WIND       PRES   REMARKS
SPRINGFIELD    MOCLDY    70  64  81 SE5       30.10R
JOPLIN         CLOUDY    72  66  81 E5        30.08R

$$
MOZ032>034-039>042-045>050-055>058-069>072-280500-
...CENTRAL MISSOURI...

CITY           SKY/WX    TMP DP  RH WIND       PRES   REMARKS
COLUMBIA       CLEAR     68  58  70 E5        30.11S
JEFFERSON CITY PTCLDY    65  59  81 CALM      30.10R
ROLLA          PTCLDY    64  58  80 E5        30.11R
SEDALIA        MOCLDY    69  57  65 SE5       30.12R
OSAGE BEACH    MOCLDY    63  57  82 CALM      30.10F

$$
MOZ051-052-059>065-280500-
...EAST CENTRAL MISSOURI...

CITY           SKY/WX    TMP DP  RH WIND       PRES   REMARKS
ST LOUIS INTL  PTCLDY    72  57  59 CALM      30.12R
SPIRIT OF STL  CLEAR     64  61  90 CALM      30.10R
ST CHARLES     CLEAR     68  58  70 CALM      30.10R

$$
MOZ072>076-082>087-097>100-106>115-280500-
...SOUTH CENTRAL AND SOUTHEAST MISSOURI...

CITY           SKY/WX    TMP DP  RH WIND       PRES   REMARKS
CAPE GIRARDEAU MOCLDY    71  69  93 S8        30.12R
FARMINGTON     MOCLDY    70  64  83 CALM      30.16S
POPLAR BLUFF   PTCLDY    72  67  84 S7        30.11R
WEST PLAINS    LGT RAIN  71  66  84 CALM      30.14S

$$


USA.gov is the U.S. government's official web portal to all federal, state and local government web resources and services.